When you browse on this site, cookies collect data to enhance your experience and personalize the content and advertising you see.
Visit our Privacy Policy to learn more. By continuing to use the site, you agree to this use of cookies and data.
  • In Czech Republic
  • List of Countries
  • For 7 days
  • Water Temperature
  • Weather Map
  • Weather Widgets
  • user-avatar
    Login

    Hourly Weather Primorsko

    Today, 2 June, Tuesday

    Time Temperature Precipitation Wind Pressure Humidity
    00:00 +13°C° 0 mm 2 mps 756 mmHg 88%
    01:00 +13°C° 0 mm 2 mps 756 mmHg 89%
    02:00 +12°C° 0 mm 2 mps 756 mmHg 88%
    03:00 +12°C° 0.1 mm 2 mps 756 mmHg 89%
    04:00 +11°C° 0.1 mm 3 mps 756 mmHg 89%
    05:00 +11°C° 0.1 mm 3 mps 756 mmHg 90%
    06:00 +13°C° 0.1 mm 3 mps 756 mmHg 84%
    07:00 +14°C° 0.1 mm 3 mps 756 mmHg 78%
    08:00 +17°C° 0 mm 3 mps 756 mmHg 71%
    09:00 +18°C° 0.3 mm 3 mps 755 mmHg 73%
    10:00 +18°C° 0.3 mm 3 mps 755 mmHg 76%
    11:00 +19°C° 0.3 mm 4 mps 755 mmHg 78%
    12:00 +19°C° 0.6 mm 4 mps 755 mmHg 78%
    13:00 +19°C° 0.6 mm 4 mps 755 mmHg 79%
    14:00 +19°C° 0.6 mm 4 mps 755 mmHg 79%
    15:00 +18°C° 0.4 mm 4 mps 754 mmHg 82%
    16:00 +18°C° 0.4 mm 4 mps 754 mmHg 84%
    17:00 +17°C° 0.4 mm 4 mps 754 mmHg 86%
    18:00 +16°C° 0.1 mm 3 mps 754 mmHg 89%
    19:00 +15°C° 0.1 mm 2 mps 754 mmHg 91%
    20:00 +14°C° 0.1 mm 1 mps 754 mmHg 94%
    21:00 +13°C° 0 mm 1 mps 754 mmHg 94%
    22:00 +13°C° 0 mm 1 mps 754 mmHg 93%
    23:00 +12°C° 0 mm 1 mps 754 mmHg 93%

    Tomorrow, 3 June, Wednesday

    Time Temperature Precipitation Wind Pressure Humidity
    00:00 +12°C° 0.1 mm 1 mps 754 mmHg 93%
    01:00 +12°C° 0.1 mm 1 mps 754 mmHg 92%
    02:00 +12°C° 0.1 mm 2 mps 754 mmHg 92%
    03:00 +12°C° 0 mm 2 mps 754 mmHg 91%
    04:00 +12°C° 0 mm 2 mps 754 mmHg 91%
    05:00 +13°C° 0 mm 2 mps 754 mmHg 90%
    06:00 +13°C° 0 mm 3 mps 754 mmHg 85%
    07:00 +16°C° 0 mm 3 mps 755 mmHg 81%
    08:00 +17°C° 0 mm 3 mps 755 mmHg 76%
    09:00 +19°C° 0.1 mm 2 mps 755 mmHg 71%
    10:00 +20°C° 0.1 mm 2 mps 755 mmHg 66%
    11:00 +21°C° 0.1 mm 2 mps 755 mmHg 61%
    12:00 +20°C° 0.4 mm 2 mps 755 mmHg 66%
    13:00 +20°C° 0.4 mm 3 mps 755 mmHg 70%
    14:00 +20°C° 0.4 mm 3 mps 755 mmHg 75%
    15:00 +20°C° 0.5 mm 3 mps 755 mmHg 76%
    16:00 +20°C° 0.5 mm 3 mps 755 mmHg 76%
    17:00 +20°C° 0.5 mm 2 mps 754 mmHg 76%
    18:00 +19°C° 0.2 mm 2 mps 755 mmHg 80%
    19:00 +17°C° 0.2 mm 2 mps 755 mmHg 84%
    20:00 +16°C° 0.2 mm 2 mps 755 mmHg 88%
    21:00 +15°C° 0.1 mm 2 mps 755 mmHg 89%
    22:00 +13°C° 0.1 mm 3 mps 755 mmHg 90%
    23:00 +13°C° 0.1 mm 3 mps 755 mmHg 91%

    Day after tomorrow, 4 June, Thursday

    Time Temperature Precipitation Wind Pressure Humidity
    00:00 +13°C° 0 mm 3 mps 755 mmHg 91%
    01:00 +12°C° 0 mm 3 mps 755 mmHg 91%
    02:00 +13°C° 0 mm 2 mps 755 mmHg 92%
    03:00 +13°C° 0 mm 2 mps 755 mmHg 92%
    04:00 +13°C° 0 mm 2 mps 755 mmHg 92%
    05:00 +13°C° 0 mm 2 mps 755 mmHg 92%
    06:00 +15°C° 0 mm 2 mps 755 mmHg 86%
    07:00 +17°C° 0 mm 2 mps 755 mmHg 81%
    08:00 +19°C° 0 mm 2 mps 755 mmHg 75%
    09:00 +21°C° 0.1 mm 3 mps 755 mmHg 68%
    10:00 +24°C° 0.1 mm 3 mps 756 mmHg 61%
    11:00 +25°C° 0.1 mm 3 mps 756 mmHg 54%
    12:00 +26°C° 0 mm 3 mps 756 mmHg 53%
    13:00 +26°C° 0 mm 3 mps 756 mmHg 52%
    14:00 +27°C° 0 mm 3 mps 756 mmHg 50%
    15:00 +26°C° 0 mm 3 mps 756 mmHg 54%
    16:00 +26°C° 0 mm 4 mps 756 mmHg 58%
    17:00 +26°C° 0 mm 4 mps 756 mmHg 62%
    18:00 +23°C° 0 mm 4 mps 756 mmHg 67%
    19:00 +21°C° 0 mm 4 mps 756 mmHg 72%
    20:00 +20°C° 0 mm 4 mps 756 mmHg 78%
    21:00 +19°C° 0 mm 4 mps 757 mmHg 77%
    22:00 +19°C° 0 mm 4 mps 757 mmHg 76%
    23:00 +18°C° 0 mm 4 mps 757 mmHg 76%

    5 June, Friday

    Time Temperature Precipitation Wind Pressure Humidity
    00:00 +18°C° 0 mm 4 mps 757 mmHg 76%
    01:00 +18°C° 0 mm 4 mps 757 mmHg 75%
    02:00 +18°C° 0 mm 4 mps 757 mmHg 75%
    03:00 +17°C° 0 mm 4 mps 757 mmHg 76%
    04:00 +17°C° 0 mm 4 mps 757 mmHg 77%
    05:00 +17°C° 0 mm 4 mps 757 mmHg 78%
    06:00 +19°C° 0 mm 4 mps 757 mmHg 74%
    07:00 +21°C° 0 mm 5 mps 757 mmHg 70%
    08:00 +22°C° 0 mm 5 mps 757 mmHg 66%
    09:00 +25°C° 0 mm 5 mps 757 mmHg 62%
    10:00 +26°C° 0 mm 5 mps 758 mmHg 58%
    11:00 +27°C° 0 mm 6 mps 758 mmHg 54%
    12:00 +27°C° 0 mm 6 mps 757 mmHg 52%
    13:00 +28°C° 0 mm 6 mps 757 mmHg 51%
    14:00 +28°C° 0 mm 6 mps 757 mmHg 49%
    15:00 +28°C° 0 mm 6 mps 757 mmHg 51%
    16:00 +27°C° 0 mm 6 mps 756 mmHg 53%
    17:00 +26°C° 0 mm 6 mps 756 mmHg 55%
    18:00 +25°C° 0 mm 5 mps 756 mmHg 57%
    19:00 +22°C° 0 mm 5 mps 757 mmHg 58%
    20:00 +20°C° 0 mm 5 mps 757 mmHg 60%
    21:00 +20°C° 0 mm 4 mps 757 mmHg 59%
    22:00 +20°C° 0 mm 4 mps 757 mmHg 58%
    23:00 +20°C° 0 mm 4 mps 757 mmHg 56%

    6 June, Saturday

    Time Temperature Precipitation Wind Pressure Humidity
    00:00 +20°C° 0 mm 4 mps 757 mmHg 56%
    01:00 +20°C° 0 mm 4 mps 757 mmHg 55%
    02:00 +20°C° 0 mm 3 mps 757 mmHg 55%
    03:00 +20°C° 0 mm 3 mps 757 mmHg 57%
    04:00 +19°C° 0 mm 3 mps 757 mmHg 60%
    05:00 +18°C° 0 mm 2 mps 756 mmHg 62%
    06:00 +20°C° 0 mm 2 mps 757 mmHg 61%
    07:00 +21°C° 0 mm 2 mps 757 mmHg 60%
    08:00 +24°C° 0 mm 2 mps 757 mmHg 59%
    09:00 +26°C° 0 mm 2 mps 757 mmHg 52%
    10:00 +27°C° 0 mm 2 mps 757 mmHg 45%
    11:00 +29°C° 0 mm 2 mps 757 mmHg 38%
    12:00 +29°C° 0 mm 2 mps 757 mmHg 39%
    13:00 +29°C° 0 mm 2 mps 757 mmHg 41%
    14:00 +29°C° 0 mm 2 mps 757 mmHg 43%
    15:00 +28°C° 0 mm 3 mps 756 mmHg 48%
    16:00 +27°C° 0 mm 3 mps 756 mmHg 53%
    17:00 +26°C° 0 mm 3 mps 756 mmHg 58%
    18:00 +24°C° 0 mm 3 mps 756 mmHg 64%
    19:00 +21°C° 0 mm 3 mps 756 mmHg 71%
    20:00 +19°C° 0 mm 2 mps 756 mmHg 77%
    21:00 +18°C° 0 mm 2 mps 756 mmHg 79%
    22:00 +19°C° 0 mm 1 mps 756 mmHg 80%
    23:00 +18°C° 0 mm 1 mps 757 mmHg 82%

    7 June, Sunday

    Time Temperature Precipitation Wind Pressure Humidity
    00:00 +18°C° 0 mm 1 mps 756 mmHg 81%
    01:00 +17°C° 0 mm 2 mps 756 mmHg 79%
    02:00 +17°C° 0 mm 2 mps 756 mmHg 78%
    03:00 +17°C° 0 mm 2 mps 756 mmHg 78%
    04:00 +17°C° 0 mm 2 mps 756 mmHg 77%
    05:00 +17°C° 0 mm 2 mps 756 mmHg 76%
    06:00 +20°C° 0 mm 1 mps 757 mmHg 74%
    07:00 +22°C° 0 mm 1 mps 757 mmHg 72%
    08:00 +24°C° 0 mm 1 mps 757 mmHg 69%
    09:00 +25°C° 0 mm 1 mps 757 mmHg 66%
    10:00 +26°C° 0 mm 1 mps 757 mmHg 62%
    11:00 +27°C° 0 mm 2 mps 757 mmHg 59%
    12:00 +27°C° 0 mm 2 mps 757 mmHg 58%
    13:00 +28°C° 0 mm 2 mps 757 mmHg 57%
    14:00 +28°C° 0 mm 2 mps 757 mmHg 56%
    15:00 +28°C° 0 mm 2 mps 757 mmHg 57%
    16:00 +28°C° 0 mm 2 mps 756 mmHg 59%
    17:00 +27°C° 0 mm 2 mps 756 mmHg 60%
    18:00 +25°C° 0 mm 2 mps 756 mmHg 67%
    19:00 +23°C° 0 mm 2 mps 757 mmHg 74%
    20:00 +22°C° 0 mm 1 mps 757 mmHg 82%
    21:00 +20°C° 0 mm 2 mps 757 mmHg 81%
    22:00 +20°C° 0 mm 2 mps 757 mmHg 80%
    23:00 +20°C° 0 mm 2 mps 757 mmHg 79%
    Show more